Temperature
18 18 18 18 18 18 18 17 17 17 17 17 17 17 17 18 18 18 18 18 18 18 18 18 18 18 18 18 18 17 17 17 17 17 17 17 17 17 17 17 17 17 17
18 18 18 17 18 17 17 17 17 17 17 17 17 17 17 17 17 17 18 18 18 18 18 18 18 18 18 18 18 18 17 17 17 17 17 17 17 17 17 17 17 17 17
17 17 17 17 17 17 17 17 17 17 17 17 17 17 17 17 17 17 17 17 18 18 18 18 18 18 18 18 18 18 18 17 17 17 17 17 17 17 17 17 17 17 17
17 17 17 17 17 17 17 17 17 17 17 17 17 17 17 17 17 17 17 17 17 18 18 18 18 18 18 18 18 18 18 18 18 17 17 17 17 17 17 17 17 17 17
17 17 17 17 17 17 17 17 17 17 17 17 17 17 17 17 17 17 17 17 17 17 17 17 18 18 18 18 18 18 18 18 18 17 17 17 17 17 17 17 17 17 17
16 16 16 16 16 16 16 16 16 16 17 17 17 17 17 17 17 17 17 17 17 17 17 17 17 17 18 18 18 18 18 18 18 17 17 17 17 17 17 17 17 17 17
16 16 16 16 16 16 16 16 16 16 16 16 17 17 17 17 17 17 17 17 18 17 17 17 17 17 17 18 18 18 18 17 18 17 17 17 17 17 17 17 17 17 17
16 16 16 16 16 16 16 16 16 16 16 16 17 18 19 19 17 18 17 17 17 17 17 17 17 17 17 17 17 18 18 17 17 17 17 17 17 17 17 17 17 17 17
15 15 15 15 15 15 15 16 16 16 16 16 16 17 19 20 19 18 17 17 17 17 17 17 16 16 16 17 17 17 17 17 17 17 17 17 17 17 17 17 17 17 17
15 15 15 15 15 15 15 15 15 15 15 16 16 16 17 18 19 20 18 17 16 16 17 17 17 16 16 16 16 17 17 17 17 17 17 17 17 17 17 17 17 17 17
14 14 14 14 15 15 15 15 15 15 15 16 16 16 16 16 17 18 19 18 17 17 16 16 16 16 16 16 16 16 17 17 17 17 17 17 17 17 17 17 17 17 17
14 14 14 14 14 14 14 15 15 15 15 15 16 16 16 16 17 17 18 18 18 17 16 16 16 16 16 16 16 16 17 17 17 17 17 17 17 17 17 17 17 16 17
13 13 13 13 13 13 13 14 14 14 14 14 15 15 15 16 16 17 17 18 18 17 16 16 16 16 16 16 16 16 16 17 16 16 17 17 17 17 17 16 16 16 16
13 12 12 12 12 12 12 13 13 13 14 14 14 14 14 15 15 16 16 17 17 17 17 17 16 16 15 15 16 16 16 16 16 16 16 16 16 16 16 16 16 16 16
12 12 12 11 11 11 12 12 12 12 12 13 13 13 14 14 14 15 15 16 16 17 18 17 16 15 15 15 15 15 15 16 16 16 16 16 16 16 16 16 16 16 16
11 11 11 11 11 11 11 11 11 11 11 12 12 12 13 13 14 14 14 14 15 16 17 17 16 15 15 15 15 15 15 15 15 15 16 16 16 16 16 16 16 16 16
10 10 10 10 10 10 10 10 10 11 11 11 11 11 12 12 13 13 13 14 14 14 15 16 15 15 14 14 14 15 14 14 14 15 15 15 15 15 15 15 15 16 16
10 10 10 10 10 10 10 10 10 10 10 10 10 11 11 11 12 12 12 13 13 13 14 14 15 14 14 14 14 14 14 14 14 14 14 15 15 15 15 15 15 15 15
10 10 10 10 10 10 10 10 10 10 10 10 10 10 10 10 11 11 12 12 12 13 13 13 14 14 14 14 14 13 13 13 13 14 14 14 14 14 14 15 15 15 15
9 9 9 9 10 10 10 10 10 10 10 10 10 10 10 10 10 10 11 11 12 12 12 13 13 13 13 13 13 13 13 13 13 13 13 13 13 14 14 14 14 14 15
9 9 9 9 9 9 10 10 10 10 9 9 9 9 9 10 10 10 10 11 11 11 12 12 13 13 13 13 13 13 13 12 12 12 12 12 13 13 13 13 14 14 14
8 8 8 8 9 9 10 9 9 9 9 9 9 9 9 9 9 9 10 10 10 10 11 12 12 13 13 13 13 12 12 12 12 12 12 12 12 12 12 12 13 13 13
7 7 7 7 8 8 8 9 9 9 9 9 9 9 9 10 9 9 9 9 10 10 10 11 11 12 12 12 12 12 12 12 12 12 11 11 11 11 11 12 12 12 12
7 7 7 7 7 7 8 8 8 8 9 9 9 9 9 9 9 9 9 9 9 10 10 10 11 11 12 12 12 12 12 12 12 11 11 11 10 10 11 11 11 11 12
6 6 6 6 6 7 7 7 8 8 8 8 8 9 9 9 9 8 8 9 9 9 10 10 10 11 11 11 12 12 11 11 11 11 11 10 10 10 10 10 11 11 11
6 6 6 6 6 6 6 7 7 7 8 8 8 8 8 8 8 8 8 8 9 9 10 10 10 10 11 11 11 12 12 11 11 10 10 10 10 10 9 9 10 10 10
Wind_Speed
9 9 8 8 10 10 9 9 10 10 10 11 12 13 13 13 13 12 9 13 16 17 17 17 17 18 19 20 21 23 24 24 24 24 23 22 22 21 21 21 20 20 19
9 8 9 9 9 10 10 9 10 10 10 9 11 12 12 13 13 13 12 12 17 17 17 17 17 17 18 19 20 21 23 24 24 25 25 25 24 23 23 22 22 22 21
10 9 9 9 9 10 10 9 10 9 9 10 11 12 11 12 12 12 13 11 12 17 19 17 16 17 17 18 19 20 21 22 24 25 26 26 26 25 25 25 24 24 23
9 8 8 9 9 9 8 8 8 8 8 9 9 9 9 9 12 12 12 12 11 11 16 19 16 15 16 17 19 20 21 22 22 23 25 26 26 26 26 26 26 26 25
9 7 7 7 8 7 8 8 7 7 7 7 8 9 9 10 9 11 11 12 12 11 11 13 16 16 16 16 17 19 20 21 22 23 23 25 26 26 26 26 26 26 26
9 8 7 8 8 7 7 7 6 6 6 6 8 8 8 8 8 9 10 11 11 12 13 11 11 15 18 16 16 17 19 21 22 24 24 23 24 25 25 26 27 27 27
6 6 7 7 8 8 7 7 7 7 7 6 6 7 8 9 8 7 8 9 9 10 10 9 10 10 11 18 18 17 18 19 21 23 23 24 24 24 25 25 27 27 28
5 5 6 6 6 6 7 7 7 6 7 6 6 6 6 7 6 8 7 8 8 8 9 10 9 8 10 9 12 17 16 17 19 21 22 23 23 24 24 24 25 26 27
4 3 4 5 5 6 6 6 6 9 8 7 7 6 5 5 5 6 6 6 6 6 7 6 8 8 10 9 8 14 15 14 16 18 20 21 22 23 24 25 25 25 26
3 3 3 4 5 5 5 6 7 8 9 8 7 7 7 4 4 4 7 7 7 6 6 6 6 7 8 9 7 5 9 11 13 15 17 19 20 22 23 24 24 24 25
3 3 3 3 4 5 6 7 6 8 9 9 8 7 8 6 7 6 5 6 6 7 6 6 6 6 6 7 7 6 7 7 9 11 13 15 17 19 20 22 22 23 23
3 3 3 3 4 5 5 6 7 8 9 9 8 8 7 7 8 8 8 7 6 6 5 5 6 5 5 6 6 5 3 4 5 7 9 11 13 15 17 19 20 21 22
4 3 3 3 4 4 6 6 7 8 8 9 10 9 9 9 8 8 8 8 7 5 5 6 6 4 4 4 3 4 4 4 4 4 5 7 9 11 13 15 17 18 19
7 5 6 6 5 5 6 5 6 8 7 8 10 10 9 9 9 9 9 8 8 8 8 7 4 4 3 3 3 3 5 6 4 3 3 4 5 6 7 9 11 13 15
9 8 8 8 8 7 7 6 6 7 7 8 9 10 10 9 9 9 9 9 9 9 8 7 6 5 5 3 3 2 3 7 5 4 3 2 3 3 4 6 7 8 10
12 11 11 11 10 10 9 8 8 7 8 8 8 9 9 9 8 8 9 9 10 10 9 5 5 6 5 3 4 2 4 8 6 5 4 3 3 2 2 3 4 5 7
14 14 13 13 13 12 12 10 11 9 9 9 8 9 10 10 9 8 8 9 10 10 10 8 6 5 6 5 5 4 5 4 6 8 6 5 4 3 2 2 1 3 4
16 16 16 16 16 15 14 13 13 12 12 11 11 10 9 9 10 9 8 10 9 9 10 10 7 6 7 7 6 5 4 4 5 10 8 7 7 6 5 4 2 1 1
17 17 17 17 17 16 15 15 15 14 13 13 12 12 11 10 10 9 10 9 8 9 9 9 9 6 5 6 6 6 6 5 6 9 10 9 9 8 8 7 6 4 3
18 17 17 17 17 17 17 16 16 15 15 14 13 13 12 12 12 11 10 10 10 9 9 9 9 8 6 6 7 6 6 5 5 6 7 8 10 10 10 9 8 7 6
19 18 17 18 18 16 16 17 16 16 16 15 15 14 14 13 11 10 10 10 10 10 10 10 10 9 8 8 8 7 7 6 5 5 6 5 6 6 7 8 9 9 10
17 17 18 18 17 16 12 12 15 16 15 16 15 15 15 14 13 13 12 11 11 11 11 10 10 11 11 10 9 9 8 8 5 6 6 4 4 5 5 7 9 10 12
17 17 17 17 17 16 12 12 15 17 17 15 15 15 14 14 15 15 16 16 15 15 14 12 12 12 11 11 12 12 11 11 7 9 8 5 5 6 6 10 11 12 13
15 15 16 16 15 15 13 14 15 17 18 17 16 16 15 14 14 14 14 15 15 16 17 15 14 13 11 10 13 13 12 8 7 7 7 5 6 6 7 9 11 12 14
15 14 13 15 15 14 13 15 15 15 16 18 17 17 16 16 13 12 14 14 14 14 14 13 11 9 7 6 8 9 11 11 8 7 6 6 7 7 7 7 10 13 14
14 14 13 13 14 14 12 14 16 14 15 15 15 15 15 15 12 14 15 15 15 14 13 12 12 11 12 11 12 13 13 13 10 7 8 7 10 8 6 5 7 9 11
Wind_Direction
237 238 240 244 246 245 238 237 242 243 241 240 240 235 239 238 240 236 227 193 207 217 221 223 223 223 222 220 218 218 217 216 214 212 211 212 214 214 212 211 209 209 208
241 242 243 244 247 248 249 248 246 246 245 244 245 244 242 241 240 239 238 213 207 215 221 224 224 224 223 221 219 219 218 217 216 214 214 213 213 214 215 214 213 212 212
250 247 248 247 246 246 247 249 253 252 247 242 241 242 240 240 240 238 240 241 222 211 215 221 225 226 225 221 217 215 215 215 215 215 215 215 215 215 216 215 215 214 213
258 258 256 251 247 245 242 243 247 247 248 249 248 246 241 234 237 235 235 233 239 236 213 211 219 223 226 222 217 214 213 215 216 216 217 217 217 217 217 218 217 216 215
256 254 256 256 250 244 243 245 238 247 247 249 250 242 242 238 237 238 238 236 232 237 239 202 206 217 223 222 219 215 212 214 217 217 218 218 219 219 219 219 220 219 217
256 252 250 250 251 247 242 239 242 241 253 253 257 253 244 242 238 237 238 236 231 230 232 230 216 214 212 217 219 218 217 217 217 218 219 219 219 219 219 220 221 221 220
268 257 254 243 245 245 244 237 235 232 239 240 249 251 243 236 235 239 236 240 229 227 229 227 231 233 210 207 214 220 223 223 221 220 220 220 221 220 220 221 223 222 222
290 265 258 253 241 238 233 234 233 241 234 220 237 247 237 213 217 224 222 224 231 223 222 221 227 229 241 228 208 209 222 227 227 225 222 220 220 220 219 221 223 223 222
315 305 279 270 257 248 241 237 231 232 235 224 225 241 247 232 191 191 211 217 216 225 226 223 226 228 235 239 233 205 209 222 228 229 225 222 221 220 220 220 221 223 223
308 305 295 286 276 268 261 248 231 232 236 233 216 232 258 293 253 199 196 200 205 218 231 238 235 227 232 238 232 238 205 220 229 232 228 224 221 220 220 220 222 223 223
300 308 301 289 280 274 266 262 253 238 234 239 233 219 221 223 241 258 224 198 205 213 215 229 238 239 233 239 238 219 176 211 228 232 229 224 221 219 220 221 224 225 224
293 308 308 303 290 281 271 261 256 244 246 246 247 239 229 224 223 227 235 229 224 217 217 238 242 235 233 238 234 114 153 211 227 232 231 227 222 221 222 224 226 227 227
278 272 279 275 285 287 277 268 258 259 250 245 240 240 241 242 240 235 240 238 234 228 218 228 223 226 228 234 205 129 180 188 203 216 222 225 222 222 224 225 226 227 229
281 277 265 261 261 264 269 267 266 258 254 251 248 246 245 243 242 236 238 241 236 231 218 221 206 206 208 211 118 218 174 150 155 165 184 201 209 216 219 219 220 225 230
272 264 258 253 251 250 252 255 261 263 259 253 251 244 244 245 242 242 239 241 243 243 231 202 209 187 193 175 150 206 150 118 124 129 140 163 186 199 208 214 217 224 230
271 267 261 257 252 248 243 242 249 243 249 252 250 250 246 247 241 238 237 238 240 247 251 226 205 193 189 187 160 168 125 123 116 120 119 118 131 152 175 201 216 224 230
267 263 258 255 253 251 246 241 246 245 241 246 248 246 243 246 245 240 236 234 234 236 241 240 221 196 192 207 173 167 160 156 122 114 107 102 103 108 117 132 181 223 232
264 262 260 257 253 249 245 242 243 244 243 242 240 241 246 243 238 239 239 239 236 233 236 238 231 213 206 200 181 175 164 146 121 108 103 98 94 90 86 82 83 109 206
267 263 259 255 253 251 247 243 242 243 242 243 241 238 237 239 242 239 235 236 237 233 231 234 232 221 209 194 178 172 155 139 130 125 115 105 95 88 80 73 72 78 94
268 263 258 254 251 248 247 244 241 240 241 242 242 240 238 234 236 236 236 235 235 236 230 230 230 219 209 195 184 176 164 157 147 135 110 107 104 95 83 72 71 77 88
270 264 258 253 249 247 245 242 241 239 237 238 238 237 236 234 235 234 238 235 231 231 228 226 226 220 210 195 194 188 176 157 142 151 140 130 127 111 97 84 76 79 89
270 268 261 255 250 247 240 229 236 244 240 237 236 237 237 229 223 219 234 244 246 239 235 230 226 222 214 204 195 188 174 172 167 167 152 131 125 109 97 84 75 83 90
271 267 261 256 252 251 242 221 221 239 242 239 236 235 237 232 218 226 221 224 234 239 243 243 241 233 218 206 196 190 190 191 179 162 155 136 129 107 96 83 82 87 92
273 267 264 259 254 247 230 220 216 232 241 239 236 232 234 240 233 228 230 228 229 228 226 229 238 239 235 216 201 195 186 171 142 153 159 140 135 118 104 97 88 91 96
274 267 261 259 254 247 230 218 213 233 234 236 234 232 230 232 225 216 232 237 237 234 226 225 236 240 245 225 196 183 172 165 159 161 169 145 142 126 115 111 102 96 99
275 269 261 255 251 247 232 213 208 231 233 232 230 231 228 232 220 201 227 234 235 233 231 218 215 221 224 211 193 192 184 178 166 160 171 155 154 146 127 125 130 130 116
Height
1529 1529 1529 1530 1531 1533 1533 1533 1534 1534 1535 1536 1537 1538 1539 1540 1542 1543 1544 1543 1544 1546 1547 1549 1551 1553 1555 1558 1559 1561 1563 1565 1567 1569 1571 1573 1575 1577 1579 1581 1583 1585 1587
1524 1524 1524 1525 1526 1527 1528 1529 1529 1529 1530 1531 1532 1533 1534 1536 1537 1538 1539 1540 1540 1542 1543 1545 1547 1549 1551 1553 1555 1557 1559 1561 1563 1565 1567 1569 1571 1573 1576 1578 1580 1582 1584
1518 1518 1519 1520 1521 1522 1523 1523 1524 1525 1525 1526 1527 1528 1529 1530 1532 1533 1535 1536 1537 1538 1539 1541 1543 1544 1546 1548 1551 1553 1555 1557 1559 1561 1563 1565 1567 1569 1572 1574 1576 1579 1581
1513 1513 1514 1515 1516 1517 1518 1519 1519 1520 1521 1522 1523 1524 1525 1525 1526 1528 1530 1531 1533 1535 1535 1536 1538 1540 1542 1543 1546 1548 1550 1553 1555 1557 1559 1561 1563 1565 1567 1570 1572 1575 1577
1507 1508 1509 1510 1511 1512 1513 1514 1515 1515 1516 1518 1518 1519 1521 1522 1523 1524 1526 1527 1528 1529 1531 1531 1532 1534 1537 1539 1540 1543 1545 1547 1550 1552 1554 1556 1558 1561 1563 1565 1568 1570 1573
1501 1502 1504 1504 1506 1507 1508 1509 1510 1510 1512 1513 1516 1517 1517 1518 1518 1520 1521 1523 1524 1525 1526 1528 1529 1530 1531 1533 1535 1537 1540 1542 1544 1547 1549 1551 1554 1556 1558 1560 1563 1565 1568
1497 1496 1498 1500 1500 1502 1503 1505 1506 1507 1508 1510 1512 1513 1514 1514 1514 1515 1517 1518 1520 1521 1522 1523 1524 1527 1528 1528 1530 1532 1534 1536 1538 1541 1543 1546 1548 1550 1553 1555 1558 1560 1563
1494 1494 1495 1495 1496 1497 1498 1500 1501 1503 1506 1507 1509 1511 1511 1512 1510 1512 1513 1514 1516 1517 1518 1519 1520 1521 1523 1525 1525 1526 1528 1530 1533 1535 1537 1539 1542 1545 1547 1550 1552 1555 1558
1492 1491 1491 1492 1493 1494 1496 1496 1497 1499 1503 1504 1505 1508 1508 1506 1508 1510 1510 1511 1512 1513 1515 1516 1516 1517 1518 1520 1521 1522 1523 1525 1527 1529 1532 1534 1536 1539 1541 1544 1547 1549 1552
1490 1490 1489 1489 1490 1491 1492 1493 1495 1496 1498 1501 1502 1503 1505 1505 1506 1506 1508 1509 1509 1510 1511 1513 1514 1514 1514 1516 1516 1517 1518 1520 1522 1524 1526 1528 1531 1533 1535 1538 1541 1543 1546
1488 1487 1487 1487 1487 1488 1488 1489 1491 1492 1494 1497 1499 1500 1501 1501 1503 1505 1504 1507 1507 1508 1508 1509 1510 1511 1511 1512 1512 1513 1513 1515 1517 1519 1521 1523 1525 1527 1530 1532 1534 1537 1540
1486 1485 1484 1483 1483 1484 1484 1485 1486 1488 1490 1491 1493 1495 1497 1498 1500 1501 1502 1503 1504 1505 1505 1506 1507 1508 1508 1508 1509 1509 1509 1511 1512 1514 1516 1518 1519 1522 1524 1526 1528 1531 1533
1484 1482 1481 1480 1480 1480 1480 1481 1482 1483 1484 1486 1487 1490 1492 1494 1496 1497 1498 1499 1500 1502 1502 1502 1503 1504 1504 1505 1505 1504 1505 1507 1508 1510 1511 1513 1515 1516 1519 1521 1523 1525 1527
1481 1479 1477 1476 1476 1476 1476 1476 1477 1477 1479 1480 1482 1484 1486 1488 1490 1492 1494 1496 1496 1497 1498 1499 1500 1500 1501 1501 1501 1501 1502 1503 1505 1506 1507 1509 1510 1512 1514 1516 1518 1520 1522
1476 1474 1473 1472 1472 1471 1471 1471 1471 1472 1473 1474 1476 1477 1479 1482 1484 1486 1488 1491 1493 1493 1493 1494 1496 1496 1497 1498 1498 1499 1499 1500 1501 1503 1504 1505 1507 1508 1509 1511 1513 1515 1516
1470 1469 1468 1468 1467 1467 1467 1466 1467 1467 1467 1468 1470 1471 1473 1476 1477 1480 1482 1485 1487 1489 1489 1490 1492 1493 1493 1495 1495 1496 1496 1497 1498 1499 1500 1502 1503 1504 1506 1507 1508 1510 1511
1463 1462 1462 1461 1461 1461 1462 1461 1462 1462 1462 1463 1464 1465 1467 1469 1471 1473 1475 1478 1480 1483 1484 1486 1488 1489 1489 1490 1491 1492 1493 1494 1495 1496 1497 1498 1500 1501 1502 1503 1504 1506 1507
1455 1455 1454 1454 1455 1455 1455 1456 1456 1457 1457 1458 1459 1459 1461 1463 1464 1466 1469 1471 1474 1476 1479 1481 1483 1485 1485 1486 1488 1489 1491 1492 1492 1493 1494 1496 1497 1498 1499 1500 1501 1502 1503
1446 1446 1446 1446 1446 1447 1448 1449 1450 1451 1452 1452 1453 1454 1455 1456 1458 1460 1462 1465 1467 1470 1472 1474 1477 1479 1481 1482 1484 1486 1487 1489 1490 1491 1492 1493 1494 1496 1496 1497 1498 1499 1500
1436 1436 1436 1437 1437 1439 1440 1441 1442 1444 1445 1446 1447 1448 1450 1451 1452 1454 1456 1458 1461 1464 1466 1468 1471 1474 1476 1478 1480 1482 1484 1486 1488 1489 1490 1491 1492 1493 1494 1495 1496 1496 1497
1427 1427 1427 1427 1428 1430 1431 1433 1435 1436 1438 1439 1440 1442 1443 1445 1446 1448 1451 1453 1456 1458 1460 1462 1465 1468 1470 1473 1475 1478 1481 1483 1485 1487 1488 1490 1491 1492 1493 1493 1494 1494 1495
1417 1416 1416 1417 1418 1420 1422 1424 1426 1429 1431 1432 1433 1435 1437 1438 1440 1442 1444 1447 1449 1452 1454 1456 1458 1461 1464 1467 1471 1474 1476 1479 1482 1484 1486 1488 1490 1491 1492 1492 1493 1494 1495
1407 1406 1406 1407 1408 1410 1413 1415 1417 1421 1423 1424 1426 1428 1430 1432 1434 1436 1437 1439 1442 1444 1447 1450 1452 1455 1458 1461 1465 1468 1471 1475 1478 1480 1484 1486 1488 1489 1491 1491 1493 1494 1495
1397 1396 1396 1397 1398 1400 1403 1405 1409 1411 1414 1416 1419 1421 1423 1425 1428 1430 1432 1434 1435 1437 1440 1443 1445 1449 1453 1456 1460 1463 1467 1471 1475 1478 1481 1484 1486 1488 1490 1491 1493 1494 1495
1388 1387 1387 1388 1388 1390 1393 1396 1400 1403 1406 1408 1411 1413 1416 1418 1421 1423 1425 1427 1429 1431 1434 1437 1439 1442 1446 1450 1454 1458 1461 1466 1469 1473 1477 1481 1484 1487 1489 1491 1493 1495 1496
1379 1379 1378 1379 1380 1381 1385 1388 1391 1395 1398 1401 1403 1405 1408 1411 1414 1415 1418 1421 1423 1425 1428 1430 1433 1436 1440 1444 1448 1452 1456 1460 1464 1468 1472 1477 1480 1484 1488 1491 1493 1495 1497